Погода Симбирскийна неделю

Республика Башкортостан, Россия

22 - 28 февраля
  • 22февраля
    Сегодня
    -28°
    -19°
    Ясно и безоблачно
    ВремяПогодаТемператураВлажностьДавлениеВетер, м/сВероятность осадков
    02:00Ясно и безоблачно-28°C76 %755 мм2.8 м/с2 %
    05:00Ясно и безоблачно-28°C73 %755 мм2.1 м/с2 %
    08:00Ясно и безоблачно-29°C75 %756 мм2.1 м/с2 %
    11:00Ясно и безоблачно-27°C67 %756 мм0.8 м/с2 %
    14:00Ясно и безоблачно-23°C67 %756 мм0.4 м/с2 %
    17:00Ясно и безоблачно-20°C70 %757 мм1.3 м/с2 %
    20:00Ясно и безоблачно-20°C77 %757 мм1.3 м/с2 %
    23:00Ясно и безоблачно-22°C84 %757 мм1.7 м/с2 %
  • 23февраля
    Пятница
    -26°
    -16°
    Ясно и безоблачно
    ВремяПогодаТемператураВлажностьДавлениеВетер, м/сВероятность осадков
    02:00Ясно и безоблачно-25°C84 %757 мм1.8 м/с2 %
    05:00Небольшая облачность-28°C83 %757 мм1.9 м/с2 %
    08:00Небольшая облачность-26°C76 %758 мм1.2 м/с2 %
    11:00Небольшая облачность-27°C72 %759 мм0.1 м/с2 %
    14:00Ясно и безоблачно-22°C74 %759 мм0.7 м/с2 %
    17:00Ясно и безоблачно-16°C72 %760 мм0.7 м/с2 %
    20:00Ясно и безоблачно-19°C79 %760 мм1.2 м/с2 %
    23:00Практически безоблачно-21°C84 %761 мм1.5 м/с2 %
  • 24февраля
    Суббота
    -25°
    -12°
    Ясно и безоблачно
    ВремяПогодаТемператураВлажностьДавлениеВетер, м/сВероятность осадков
    02:00Практически безоблачно-24°C85 %761 мм1.7 м/с2 %
    05:00Практически безоблачно-25°C83 %761 мм1.2 м/с2 %
    08:00Небольшая облачность-26°C79 %762 мм1.0 м/с1 %
    11:00Небольшая облачность-21°C75 %763 мм0.5 м/с1 %
    14:00Ясно и безоблачно-16°C78 %763 мм0.8 м/с2 %
    17:00Ясно и безоблачно-13°C78 %763 мм1.6 м/с2 %
    20:00Ясно и безоблачно-16°C87 %763 мм0.4 м/с2 %
    23:00Практически безоблачно-20°C87 %763 мм1.8 м/с2 %
  • 25февраля
    Воскресенье
    -21°
    -7°
    Ясно и безоблачно
    ВремяПогодаТемператураВлажностьДавлениеВетер, м/сВероятность осадков
    02:00Практически безоблачно-21°C87 %763 мм1.9 м/с2 %
    05:00Практически безоблачно-23°C87 %763 мм2.3 м/с2 %
    08:00Ясно и безоблачно-25°C82 %763 мм2.6 м/с2 %
    11:00Ясно и безоблачно-16°C69 %764 мм2.2 м/с2 %
    14:00Ясно и безоблачно-9°C60 %764 мм2.1 м/с2 %
    17:00Ясно и безоблачно-7°C69 %764 мм1.9 м/с2 %
    20:00Ясно и безоблачно-15°C67 %763 мм3.6 м/с2 %
    23:00Ясно и безоблачно-18°C71 %763 мм3.5 м/с2 %
  • 26февраля
    Понедельник
    -17°
    -4°
    Ясно и безоблачно
    ВремяПогодаТемператураВлажностьДавлениеВетер, м/сВероятность осадков
    02:00Ясно и безоблачно-19°C73 %763 мм3.3 м/с2 %
    05:00Ясно и безоблачно-19°C76 %762 мм3.2 м/с2 %
    08:00Ясно и безоблачно-20°C76 %762 мм3.2 м/с2 %
    11:00Ясно и безоблачно-12°C67 %763 мм2.4 м/с2 %
    14:00Ясно и безоблачно-7°C58 %762 мм2.4 м/с2 %
    17:00Ясно и безоблачно-5°C69 %762 мм1.6 м/с2 %
    20:00Ясно и безоблачно-12°C68 %762 мм3.6 м/с2 %
    23:00Ясно и безоблачно-13°C68 %761 мм2.4 м/с2 %
Мы используем cookies
Соглашаюсь